Year,Month,Day,Hour,Minute,Value (Times are PST for temperature in C)
2015,06,26,00,00,21.20
2015,06,26,00,01,21.20
2015,06,26,00,02,21.10
2015,06,26,00,03,21.10
2015,06,26,00,04,21.10
2015,06,26,00,05,21.10
2015,06,26,00,06,21.00
2015,06,26,00,07,21.00
2015,06,26,00,08,20.90
2015,06,26,00,09,20.90
2015,06,26,00,10,20.90
2015,06,26,00,11,20.80
2015,06,26,00,12,20.80
2015,06,26,00,13,20.80
2015,06,26,00,14,20.70
2015,06,26,00,15,20.70
2015,06,26,00,16,20.70
2015,06,26,00,17,20.60
2015,06,26,00,18,20.60
2015,06,26,00,19,20.50
2015,06,26,00,20,20.50
2015,06,26,00,21,20.40
2015,06,26,00,22,20.40
2015,06,26,00,23,20.40
2015,06,26,00,24,20.30
2015,06,26,00,25,20.30
2015,06,26,00,26,20.30
2015,06,26,00,27,20.30
2015,06,26,00,28,20.20
2015,06,26,00,29,20.20
2015,06,26,00,30,20.20
2015,06,26,00,31,20.20
2015,06,26,00,32,20.10
2015,06,26,00,33,20.10
2015,06,26,00,34,20.10
2015,06,26,00,35,20.10
2015,06,26,00,36,20.00
2015,06,26,00,37,20.00
2015,06,26,00,38,20.00
2015,06,26,00,39,20.00
2015,06,26,00,40,19.90
2015,06,26,00,41,19.90
2015,06,26,00,42,19.90
2015,06,26,00,43,19.80
2015,06,26,00,44,19.80
2015,06,26,00,45,19.80
2015,06,26,00,46,19.80
2015,06,26,00,47,19.80
2015,06,26,00,48,19.80
2015,06,26,00,49,19.70
2015,06,26,00,50,19.70
2015,06,26,00,51,19.70
2015,06,26,00,52,19.70
2015,06,26,00,53,19.70
2015,06,26,00,54,19.70
2015,06,26,00,55,19.60
2015,06,26,00,56,19.60
2015,06,26,00,57,19.60
2015,06,26,00,58,19.60
2015,06,26,00,59,19.50
2015,06,26,01,00,19.50
2015,06,26,01,01,19.50
2015,06,26,01,02,19.40
2015,06,26,01,03,19.40
2015,06,26,01,04,19.40
2015,06,26,01,05,19.40
2015,06,26,01,06,19.40
2015,06,26,01,07,19.40
2015,06,26,01,08,19.40
2015,06,26,01,09,19.40
2015,06,26,01,10,19.30
2015,06,26,01,11,19.30
2015,06,26,01,12,19.30
2015,06,26,01,13,19.30
2015,06,26,01,14,19.30
2015,06,26,01,15,19.30
2015,06,26,01,16,19.30
2015,06,26,01,17,19.20
2015,06,26,01,18,19.20
2015,06,26,01,19,19.20
2015,06,26,01,20,19.20
2015,06,26,01,21,19.20
2015,06,26,01,22,19.20
2015,06,26,01,23,19.20
2015,06,26,01,24,19.20
2015,06,26,01,25,19.10
2015,06,26,01,26,19.10
2015,06,26,01,27,19.10
2015,06,26,01,28,19.10
2015,06,26,01,29,19.10
2015,06,26,01,30,19.10
2015,06,26,01,31,19.00
2015,06,26,01,32,19.00
2015,06,26,01,33,19.00
2015,06,26,01,34,19.00
2015,06,26,01,35,18.90
2015,06,26,01,36,18.90
2015,06,26,01,37,18.90
2015,06,26,01,38,18.90
2015,06,26,01,39,18.90
2015,06,26,01,40,18.90
2015,06,26,01,41,18.80
2015,06,26,01,42,18.80
2015,06,26,01,43,18.80
2015,06,26,01,44,18.80
2015,06,26,01,45,18.80
2015,06,26,01,46,18.80
2015,06,26,01,47,18.70
2015,06,26,01,48,18.70
2015,06,26,01,49,18.70
2015,06,26,01,50,18.70
2015,06,26,01,51,18.70
2015,06,26,01,52,18.70
2015,06,26,01,53,18.60
2015,06,26,01,54,18.60
2015,06,26,01,55,18.60
2015,06,26,01,56,18.60
2015,06,26,01,57,18.60
2015,06,26,01,58,18.50
2015,06,26,01,59,18.50
2015,06,26,02,00,18.50
2015,06,26,02,01,18.50
2015,06,26,02,02,18.50
2015,06,26,02,03,18.40
2015,06,26,02,04,18.40
2015,06,26,02,05,18.40
2015,06,26,02,06,18.40
2015,06,26,02,07,18.40
2015,06,26,02,08,18.40
2015,06,26,02,09,18.40
2015,06,26,02,10,18.40
2015,06,26,02,11,18.40
2015,06,26,02,12,18.30
2015,06,26,02,13,18.30
2015,06,26,02,14,18.30
2015,06,26,02,15,18.30
2015,06,26,02,16,18.30
2015,06,26,02,17,18.30
2015,06,26,02,18,18.30
2015,06,26,02,19,18.30
2015,06,26,02,20,18.30
2015,06,26,02,21,18.30
2015,06,26,02,22,18.30
2015,06,26,02,23,18.20
2015,06,26,02,24,18.20
2015,06,26,02,25,18.20
2015,06,26,02,26,18.20
2015,06,26,02,27,18.20
2015,06,26,02,28,18.20
2015,06,26,02,29,18.20
2015,06,26,02,30,18.20
2015,06,26,02,31,18.20
2015,06,26,02,32,18.10
2015,06,26,02,33,18.10
2015,06,26,02,34,18.10
2015,06,26,02,35,18.10
2015,06,26,02,36,18.10
2015,06,26,02,37,18.10
2015,06,26,02,38,18.10
2015,06,26,02,39,18.10
2015,06,26,02,40,18.00
2015,06,26,02,41,18.00
2015,06,26,02,42,18.00
2015,06,26,02,43,18.00
2015,06,26,02,44,17.90
2015,06,26,02,45,17.90
2015,06,26,02,46,17.90
2015,06,26,02,47,17.90
2015,06,26,02,48,17.90
2015,06,26,02,49,17.80
2015,06,26,02,50,17.80
2015,06,26,02,51,17.80
2015,06,26,02,52,17.80
2015,06,26,02,53,17.80
2015,06,26,02,54,17.80
2015,06,26,02,55,17.80
2015,06,26,02,56,17.80
2015,06,26,02,57,17.70
2015,06,26,02,58,17.70
2015,06,26,02,59,17.70
2015,06,26,03,00,17.70
2015,06,26,03,01,17.70
2015,06,26,03,02,17.70
2015,06,26,03,03,17.70
2015,06,26,03,04,17.70
2015,06,26,03,05,17.70
2015,06,26,03,06,17.70
2015,06,26,03,07,17.60
2015,06,26,03,08,17.60
2015,06,26,03,09,17.60
2015,06,26,03,10,17.60
2015,06,26,03,11,17.60
2015,06,26,03,12,17.60
2015,06,26,03,13,17.60
2015,06,26,03,14,17.50
2015,06,26,03,15,17.50
2015,06,26,03,16,17.50
2015,06,26,03,17,17.50
2015,06,26,03,18,17.40
2015,06,26,03,19,17.40
2015,06,26,03,20,17.40
2015,06,26,03,21,17.40
2015,06,26,03,22,17.40
2015,06,26,03,23,17.40
2015,06,26,03,24,17.40
2015,06,26,03,25,17.40
2015,06,26,03,26,17.40
2015,06,26,03,27,17.40
2015,06,26,03,28,17.30
2015,06,26,03,29,17.30
2015,06,26,03,30,17.30
2015,06,26,03,31,17.30
2015,06,26,03,32,17.30
2015,06,26,03,33,17.30
2015,06,26,03,34,17.30
2015,06,26,03,35,17.30
2015,06,26,03,36,17.30
2015,06,26,03,37,17.30
2015,06,26,03,38,17.30
2015,06,26,03,39,17.30
2015,06,26,03,40,17.30
2015,06,26,03,41,17.30
2015,06,26,03,42,17.20
2015,06,26,03,43,17.20
2015,06,26,03,44,17.20
2015,06,26,03,45,17.20
2015,06,26,03,46,17.20
2015,06,26,03,47,17.20
2015,06,26,03,48,17.20
2015,06,26,03,49,17.20
2015,06,26,03,50,17.20
2015,06,26,03,51,17.20
2015,06,26,03,52,17.20
2015,06,26,03,53,17.10
2015,06,26,03,54,17.10
2015,06,26,03,55,17.10
2015,06,26,03,56,17.10
2015,06,26,03,57,17.10
2015,06,26,03,58,17.10
2015,06,26,03,59,17.10
2015,06,26,04,00,17.10
2015,06,26,04,01,17.10
2015,06,26,04,02,17.10
2015,06,26,04,03,17.00
2015,06,26,04,04,17.00
2015,06,26,04,05,17.00
2015,06,26,04,06,17.00
2015,06,26,04,07,17.00
2015,06,26,04,08,16.90
2015,06,26,04,09,16.90
2015,06,26,04,10,16.90
2015,06,26,04,11,16.90
2015,06,26,04,12,16.90
2015,06,26,04,13,16.90
2015,06,26,04,14,16.90
2015,06,26,04,15,16.90
2015,06,26,04,16,16.80
2015,06,26,04,17,16.80
2015,06,26,04,18,16.80
2015,06,26,04,19,16.80
2015,06,26,04,20,16.80
2015,06,26,04,21,16.80
2015,06,26,04,22,16.70
2015,06,26,04,23,16.70
2015,06,26,04,24,16.70
2015,06,26,04,25,16.70
2015,06,26,04,26,16.70
2015,06,26,04,27,16.70
2015,06,26,04,28,16.70
2015,06,26,04,29,16.60
2015,06,26,04,30,16.60
2015,06,26,04,31,16.60
2015,06,26,04,32,16.60
2015,06,26,04,33,16.60
2015,06,26,04,34,16.60
2015,06,26,04,35,16.60
2015,06,26,04,36,16.60
2015,06,26,04,37,16.60
2015,06,26,04,38,16.60
2015,06,26,04,39,16.60
2015,06,26,04,40,16.60
2015,06,26,04,41,16.60
2015,06,26,04,42,16.60
2015,06,26,04,43,16.60
2015,06,26,04,44,16.60
2015,06,26,04,45,16.60
2015,06,26,04,46,16.60
2015,06,26,04,47,16.50
2015,06,26,04,48,16.50
2015,06,26,04,49,16.50
2015,06,26,04,50,16.50
2015,06,26,04,51,16.50
2015,06,26,04,52,16.50
2015,06,26,04,53,16.50
2015,06,26,04,54,16.50
2015,06,26,04,55,16.50
2015,06,26,04,56,16.50
2015,06,26,04,57,16.50
2015,06,26,04,58,16.40
2015,06,26,04,59,16.40
2015,06,26,05,00,16.40
2015,06,26,05,01,16.40
2015,06,26,05,02,16.40
2015,06,26,05,03,16.40
2015,06,26,05,04,16.40
2015,06,26,05,05,16.40
2015,06,26,05,06,16.40
2015,06,26,05,07,16.40
2015,06,26,05,08,16.40
2015,06,26,05,09,16.40
2015,06,26,05,10,16.40
2015,06,26,05,11,16.40
2015,06,26,05,12,16.40
2015,06,26,05,13,16.40
2015,06,26,05,14,16.40
2015,06,26,05,15,16.40
2015,06,26,05,16,16.40
2015,06,26,05,17,16.30
2015,06,26,05,18,16.30
2015,06,26,05,19,16.30
2015,06,26,05,20,16.30
2015,06,26,05,21,16.30
2015,06,26,05,22,16.30
2015,06,26,05,23,16.30
2015,06,26,05,24,16.30
2015,06,26,05,25,16.30
2015,06,26,05,26,16.30
2015,06,26,05,27,16.30
2015,06,26,05,28,16.30
2015,06,26,05,29,16.30
2015,06,26,05,30,16.30
2015,06,26,05,31,16.30
2015,06,26,05,32,16.30
2015,06,26,05,33,16.30
2015,06,26,05,34,16.30
2015,06,26,05,35,16.30
2015,06,26,05,36,16.30
2015,06,26,05,37,16.30
2015,06,26,05,38,16.20
2015,06,26,05,39,16.20
2015,06,26,05,40,16.20
2015,06,26,05,41,16.20
2015,06,26,05,42,16.20
2015,06,26,05,43,16.20
2015,06,26,05,44,16.20
2015,06,26,05,45,16.20
2015,06,26,05,46,16.20
2015,06,26,05,47,16.20
2015,06,26,05,48,16.20
2015,06,26,05,49,16.20
2015,06,26,05,50,16.20
2015,06,26,05,51,16.20
2015,06,26,05,52,16.30
2015,06,26,05,53,16.30
2015,06,26,05,54,16.30
2015,06,26,05,55,16.30
2015,06,26,05,56,16.30
2015,06,26,05,57,16.30
2015,06,26,05,58,16.30
2015,06,26,05,59,16.30
2015,06,26,06,00,16.30
2015,06,26,06,01,16.30
2015,06,26,06,02,16.30
2015,06,26,06,03,16.30
2015,06,26,06,04,16.30
2015,06,26,06,05,16.30
2015,06,26,06,06,16.30
2015,06,26,06,07,16.30
2015,06,26,06,08,16.30
2015,06,26,06,09,16.30
2015,06,26,06,10,16.30
2015,06,26,06,11,16.30
2015,06,26,06,12,16.40
2015,06,26,06,13,16.40
2015,06,26,06,14,16.40
2015,06,26,06,15,16.40
2015,06,26,06,16,16.40
2015,06,26,06,17,16.40
2015,06,26,06,18,16.40
2015,06,26,06,19,16.40
2015,06,26,06,20,16.40
2015,06,26,06,21,16.50
2015,06,26,06,22,16.50
2015,06,26,06,23,16.60
2015,06,26,06,24,16.60
2015,06,26,06,25,16.60
2015,06,26,06,26,16.60
2015,06,26,06,27,16.70
2015,06,26,06,28,16.70
2015,06,26,06,29,16.70
2015,06,26,06,30,16.70
2015,06,26,06,31,16.70
2015,06,26,06,32,16.80
2015,06,26,06,33,16.80
2015,06,26,06,34,16.80
2015,06,26,06,35,16.80
2015,06,26,06,36,16.80
2015,06,26,06,37,16.90
2015,06,26,06,38,16.90
2015,06,26,06,39,16.90
2015,06,26,06,40,16.90
2015,06,26,06,41,17.00
2015,06,26,06,42,17.00
2015,06,26,06,43,17.00
2015,06,26,06,44,17.10
2015,06,26,06,45,17.10
2015,06,26,06,46,17.10
2015,06,26,06,47,17.10
2015,06,26,06,48,17.20
2015,06,26,06,49,17.20
2015,06,26,06,50,17.20
2015,06,26,06,51,17.30
2015,06,26,06,52,17.30
2015,06,26,06,53,17.30
2015,06,26,06,54,17.40
2015,06,26,06,55,17.40
2015,06,26,06,56,17.40
2015,06,26,06,57,17.50
2015,06,26,06,58,17.50
2015,06,26,06,59,17.60
2015,06,26,07,00,17.60
2015,06,26,07,01,17.60
2015,06,26,07,02,17.70
2015,06,26,07,03,17.70
2015,06,26,07,04,17.70
2015,06,26,07,05,17.80
2015,06,26,07,06,17.80
2015,06,26,07,07,17.80
2015,06,26,07,08,17.80
2015,06,26,07,09,17.80
2015,06,26,07,10,17.90
2015,06,26,07,11,17.90
2015,06,26,07,12,17.90
2015,06,26,07,13,18.00
2015,06,26,07,14,18.00
2015,06,26,07,15,18.00
2015,06,26,07,16,18.10
2015,06,26,07,17,18.10
2015,06,26,07,18,18.10
2015,06,26,07,19,18.20
2015,06,26,07,20,18.20
2015,06,26,07,21,18.20
2015,06,26,07,22,18.30
2015,06,26,07,23,18.30
2015,06,26,07,24,18.40
2015,06,26,07,25,18.40
2015,06,26,07,26,18.40
2015,06,26,07,27,18.50
2015,06,26,07,28,18.50
2015,06,26,07,29,18.60
2015,06,26,07,30,18.60
2015,06,26,07,31,18.60
2015,06,26,07,32,18.70
2015,06,26,07,33,18.70
2015,06,26,07,34,18.70
2015,06,26,07,35,18.80
2015,06,26,07,36,18.80
2015,06,26,07,37,18.80
2015,06,26,07,38,18.90
2015,06,26,07,39,18.90
2015,06,26,07,40,18.90
2015,06,26,07,41,18.90
2015,06,26,07,42,19.00
2015,06,26,07,43,19.00
2015,06,26,07,44,19.00
2015,06,26,07,45,19.10
2015,06,26,07,46,19.10
2015,06,26,07,47,19.10
2015,06,26,07,48,19.10
2015,06,26,07,49,19.20
2015,06,26,07,50,19.20
2015,06,26,07,51,19.20
2015,06,26,07,52,19.20
2015,06,26,07,53,19.20
2015,06,26,07,54,19.30
2015,06,26,07,55,19.30
2015,06,26,07,56,19.30
2015,06,26,07,57,19.30
2015,06,26,07,58,19.40
2015,06,26,07,59,19.40
2015,06,26,08,00,19.50
2015,06,26,08,01,19.60
2015,06,26,08,02,19.60
2015,06,26,08,03,19.70
2015,06,26,08,04,19.80
2015,06,26,08,05,19.80
2015,06,26,08,06,19.90
2015,06,26,08,07,20.00
2015,06,26,08,08,20.10
2015,06,26,08,09,20.20
2015,06,26,08,10,20.30
2015,06,26,08,11,20.40
2015,06,26,08,12,20.50
2015,06,26,08,13,20.60
2015,06,26,08,14,20.70
2015,06,26,08,15,20.80
2015,06,26,08,16,20.90
2015,06,26,08,17,21.00
2015,06,26,08,18,21.10
2015,06,26,08,19,21.20
2015,06,26,08,20,21.30
2015,06,26,08,21,21.50
2015,06,26,08,22,21.60
2015,06,26,08,23,21.70
2015,06,26,08,24,21.80
2015,06,26,08,25,21.90
2015,06,26,08,26,22.00
2015,06,26,08,27,22.10
2015,06,26,08,28,22.10
2015,06,26,08,29,22.20
2015,06,26,08,30,22.30
2015,06,26,08,31,22.30
2015,06,26,08,32,22.40
2015,06,26,08,33,22.40
2015,06,26,08,34,22.50
2015,06,26,08,35,22.50
2015,06,26,08,36,22.50
2015,06,26,08,37,22.60
2015,06,26,08,38,22.60
2015,06,26,08,39,22.60
2015,06,26,08,40,22.60
2015,06,26,08,41,22.60
2015,06,26,08,42,22.60
2015,06,26,08,43,22.60
2015,06,26,08,44,22.60
2015,06,26,08,45,22.60
2015,06,26,08,46,22.60
2015,06,26,08,47,22.60
2015,06,26,08,48,22.60
2015,06,26,08,49,22.50
2015,06,26,08,50,22.50
2015,06,26,08,51,22.40
2015,06,26,08,52,22.40
2015,06,26,08,53,22.40
2015,06,26,08,54,22.30
2015,06,26,08,55,22.30
2015,06,26,08,56,22.30
2015,06,26,08,57,22.30
2015,06,26,08,58,22.30
2015,06,26,08,59,22.30
2015,06,26,09,00,22.40
2015,06,26,09,01,22.40
2015,06,26,09,02,22.40
2015,06,26,09,03,22.40
2015,06,26,09,04,22.50
2015,06,26,09,05,22.60
2015,06,26,09,06,22.60
2015,06,26,09,07,22.60
2015,06,26,09,08,22.60
2015,06,26,09,09,22.70
2015,06,26,09,10,22.70
2015,06,26,09,11,22.70
2015,06,26,09,12,22.70
2015,06,26,09,13,22.70
2015,06,26,09,14,22.70
2015,06,26,09,15,22.80
2015,06,26,09,16,22.80
2015,06,26,09,17,22.80
2015,06,26,09,18,22.80
2015,06,26,09,19,22.80
2015,06,26,09,20,22.80
2015,06,26,09,21,22.80
2015,06,26,09,22,22.80
2015,06,26,09,23,22.80
2015,06,26,09,24,22.80
2015,06,26,09,25,22.90
2015,06,26,09,26,22.90
2015,06,26,09,27,23.00
2015,06,26,09,28,23.00
2015,06,26,09,29,23.10
2015,06,26,09,30,23.10
2015,06,26,09,31,23.10
2015,06,26,09,32,23.10
2015,06,26,09,33,23.10
2015,06,26,09,34,23.20
2015,06,26,09,35,23.20
2015,06,26,09,36,23.30
2015,06,26,09,37,23.30
2015,06,26,09,38,23.30
2015,06,26,09,39,23.40
2015,06,26,09,40,23.40
2015,06,26,09,41,23.40
2015,06,26,09,42,23.40
2015,06,26,09,43,23.40
2015,06,26,09,44,23.30
2015,06,26,09,45,23.30
2015,06,26,09,46,23.30
2015,06,26,09,47,23.30
2015,06,26,09,48,23.30
2015,06,26,09,49,23.30
2015,06,26,09,50,23.30
2015,06,26,09,51,23.30
2015,06,26,09,52,23.20
2015,06,26,09,53,23.20
2015,06,26,09,54,23.20
2015,06,26,09,55,23.30
2015,06,26,09,56,23.30
2015,06,26,09,57,23.20
2015,06,26,09,58,23.30
2015,06,26,09,59,23.30
2015,06,26,10,00,23.30
2015,06,26,10,01,23.30
2015,06,26,10,02,23.30
2015,06,26,10,03,23.40
2015,06,26,10,04,23.40
2015,06,26,10,05,23.40
2015,06,26,10,06,23.40
2015,06,26,10,07,23.40
2015,06,26,10,08,23.40
2015,06,26,10,09,23.40
2015,06,26,10,10,23.40
2015,06,26,10,11,23.30
2015,06,26,10,12,23.30
2015,06,26,10,13,23.30
2015,06,26,10,14,23.30
2015,06,26,10,15,23.30
2015,06,26,10,16,23.30
2015,06,26,10,17,23.40
2015,06,26,10,18,23.40
2015,06,26,10,19,23.50
2015,06,26,10,20,23.50
2015,06,26,10,21,23.60
2015,06,26,10,22,23.70
2015,06,26,10,23,23.80
2015,06,26,10,24,23.90
2015,06,26,10,25,24.00
2015,06,26,10,26,24.00
2015,06,26,10,27,24.10
2015,06,26,10,28,24.20
2015,06,26,10,29,24.20
2015,06,26,10,30,24.30
2015,06,26,10,31,24.30
2015,06,26,10,32,24.30
2015,06,26,10,33,24.30
2015,06,26,10,34,24.30
2015,06,26,10,35,24.30
2015,06,26,10,36,24.30
2015,06,26,10,37,24.30
2015,06,26,10,38,24.30
2015,06,26,10,39,24.40
2015,06,26,10,40,24.30
2015,06,26,10,41,24.30
2015,06,26,10,42,24.30
2015,06,26,10,43,24.30
2015,06,26,10,44,24.30
2015,06,26,10,45,24.20
2015,06,26,10,46,24.20
2015,06,26,10,47,24.10
2015,06,26,10,48,24.00
2015,06,26,10,49,24.00
2015,06,26,10,50,23.90
2015,06,26,10,51,23.80
2015,06,26,10,52,23.80
2015,06,26,10,53,23.90
2015,06,26,10,54,23.90
2015,06,26,10,55,23.90
2015,06,26,10,56,24.00
2015,06,26,10,57,24.00
2015,06,26,10,58,24.00
2015,06,26,10,59,24.10
2015,06,26,11,00,24.10
2015,06,26,11,01,24.10
2015,06,26,11,02,24.10
2015,06,26,11,03,24.00
2015,06,26,11,04,23.90
2015,06,26,11,05,23.80
2015,06,26,11,06,23.80
2015,06,26,11,07,23.80
2015,06,26,11,08,23.90
2015,06,26,11,09,23.90
2015,06,26,11,10,24.00
2015,06,26,11,11,24.00
2015,06,26,11,12,24.00
2015,06,26,11,13,24.10
2015,06,26,11,14,24.10
2015,06,26,11,15,24.10
2015,06,26,11,16,24.10
2015,06,26,11,17,24.10
2015,06,26,11,18,24.10
2015,06,26,11,19,24.10
2015,06,26,11,20,24.10
2015,06,26,11,21,24.10
2015,06,26,11,22,24.00
2015,06,26,11,23,24.00
2015,06,26,11,24,24.00
2015,06,26,11,25,23.90
2015,06,26,11,26,23.70
2015,06,26,11,27,23.70
2015,06,26,11,28,23.60
2015,06,26,11,29,23.60
2015,06,26,11,30,23.60
2015,06,26,11,31,23.60
2015,06,26,11,32,23.70
2015,06,26,11,33,23.70
2015,06,26,11,34,23.80
2015,06,26,11,35,23.80
2015,06,26,11,36,23.90
2015,06,26,11,37,23.90
2015,06,26,11,38,24.00
2015,06,26,11,39,24.00
2015,06,26,11,40,24.10
2015,06,26,11,41,24.20
2015,06,26,11,42,24.20
2015,06,26,11,43,24.20
2015,06,26,11,44,24.30
2015,06,26,11,45,24.30
2015,06,26,11,46,24.30
2015,06,26,11,47,24.40
2015,06,26,11,48,24.30
2015,06,26,11,49,24.30
2015,06,26,11,50,24.30
2015,06,26,11,51,24.30
2015,06,26,11,52,24.30
2015,06,26,11,53,24.20
2015,06,26,11,54,24.20
2015,06,26,11,55,24.30
2015,06,26,11,56,24.20
2015,06,26,11,57,24.30
2015,06,26,11,58,24.40
2015,06,26,11,59,24.40
2015,06,26,12,00,24.50
2015,06,26,12,01,24.40
2015,06,26,12,02,24.40
2015,06,26,12,03,24.40
2015,06,26,12,04,24.50
2015,06,26,12,05,24.50
2015,06,26,12,06,24.60
2015,06,26,12,07,24.60
2015,06,26,12,08,24.60
2015,06,26,12,09,24.60
2015,06,26,12,10,24.70
2015,06,26,12,11,24.80
2015,06,26,12,12,24.80
2015,06,26,12,13,24.90
2015,06,26,12,14,24.90
2015,06,26,12,15,24.90
2015,06,26,12,16,24.90
2015,06,26,12,17,25.00
2015,06,26,12,18,25.00
2015,06,26,12,19,25.10
2015,06,26,12,20,25.10
2015,06,26,12,21,25.10
2015,06,26,12,22,25.00
2015,06,26,12,23,24.90
2015,06,26,12,24,24.80
2015,06,26,12,25,24.70
2015,06,26,12,26,24.60
2015,06,26,12,27,24.50
2015,06,26,12,28,24.40
2015,06,26,12,29,24.50
2015,06,26,12,30,24.50
2015,06,26,12,31,24.40
2015,06,26,12,32,24.40
2015,06,26,12,33,24.50
2015,06,26,12,34,24.60
2015,06,26,12,35,24.60
2015,06,26,12,36,24.70
2015,06,26,12,37,24.80
2015,06,26,12,38,24.90
2015,06,26,12,39,24.90
2015,06,26,12,40,24.80
2015,06,26,12,41,24.80
2015,06,26,12,42,24.80
2015,06,26,12,43,24.90
2015,06,26,12,44,24.90
2015,06,26,12,45,24.90
2015,06,26,12,46,24.90
2015,06,26,12,47,24.90
2015,06,26,12,48,25.00
2015,06,26,12,49,25.10
2015,06,26,12,50,25.20
2015,06,26,12,51,25.30
2015,06,26,12,52,25.30
2015,06,26,12,53,25.30
2015,06,26,12,54,25.30
2015,06,26,12,55,25.30
2015,06,26,12,56,25.30
2015,06,26,12,57,25.20
2015,06,26,12,58,25.20
2015,06,26,12,59,25.20
2015,06,26,13,00,25.30
2015,06,26,13,01,25.40
2015,06,26,13,02,25.40
2015,06,26,13,03,25.50
2015,06,26,13,04,25.60
2015,06,26,13,05,25.60
2015,06,26,13,06,25.60
2015,06,26,13,07,25.70
2015,06,26,13,08,25.80
2015,06,26,13,09,25.80
2015,06,26,13,10,25.80
2015,06,26,13,11,25.80
2015,06,26,13,12,25.80
2015,06,26,13,13,25.80
2015,06,26,13,14,25.90
2015,06,26,13,15,25.90
2015,06,26,13,16,26.00
2015,06,26,13,17,26.00
2015,06,26,13,18,26.00
2015,06,26,13,19,26.00
2015,06,26,13,20,26.10
2015,06,26,13,21,26.10
2015,06,26,13,22,26.10
2015,06,26,13,23,26.10
2015,06,26,13,24,26.10
2015,06,26,13,25,26.10
2015,06,26,13,26,26.20
2015,06,26,13,27,26.20
2015,06,26,13,28,26.30
2015,06,26,13,29,26.30
2015,06,26,13,30,26.30
2015,06,26,13,31,26.30
2015,06,26,13,32,26.30
2015,06,26,13,33,26.30
2015,06,26,13,34,26.30
2015,06,26,13,35,26.30
2015,06,26,13,36,26.30
2015,06,26,13,37,26.30
2015,06,26,13,38,26.20
2015,06,26,13,39,26.10
2015,06,26,13,40,26.10
2015,06,26,13,41,26.20
2015,06,26,13,42,26.30
2015,06,26,13,43,26.40
2015,06,26,13,44,26.50
2015,06,26,13,45,26.60
2015,06,26,13,46,26.50
2015,06,26,13,47,26.40
2015,06,26,13,48,26.40
2015,06,26,13,49,26.40
2015,06,26,13,50,26.50
2015,06,26,13,51,26.60
2015,06,26,13,52,26.60
2015,06,26,13,53,26.60
2015,06,26,13,54,26.60
2015,06,26,13,55,26.70
2015,06,26,13,56,26.80
2015,06,26,13,57,26.80
2015,06,26,13,58,26.80
2015,06,26,13,59,26.80
2015,06,26,14,00,26.80
2015,06,26,14,01,26.70
2015,06,26,14,02,26.70
2015,06,26,14,03,26.70
2015,06,26,14,04,26.70
2015,06,26,14,05,26.80
2015,06,26,14,06,26.80
2015,06,26,14,07,27.00
2015,06,26,14,08,27.10
2015,06,26,14,09,27.20
2015,06,26,14,10,27.30
2015,06,26,14,11,27.30
2015,06,26,14,12,27.30
2015,06,26,14,13,27.40
2015,06,26,14,14,27.40
2015,06,26,14,15,27.50
2015,06,26,14,16,27.50
2015,06,26,14,17,27.30
2015,06,26,14,18,27.20
2015,06,26,14,19,27.30
2015,06,26,14,20,27.30
2015,06,26,14,21,27.30
2015,06,26,14,22,27.30
2015,06,26,14,23,27.40
2015,06,26,14,24,27.40
2015,06,26,14,25,27.40
2015,06,26,14,26,27.40
2015,06,26,14,27,27.40
2015,06,26,14,28,27.50
2015,06,26,14,29,27.50
2015,06,26,14,30,27.60
2015,06,26,14,31,27.60
2015,06,26,14,32,27.60
2015,06,26,14,33,27.70
2015,06,26,14,34,27.70
2015,06,26,14,35,27.80
2015,06,26,14,36,27.70
2015,06,26,14,37,27.60
2015,06,26,14,38,27.50
2015,06,26,14,39,27.50
2015,06,26,14,40,27.50
2015,06,26,14,41,27.60
2015,06,26,14,42,27.80
2015,06,26,14,43,27.90
2015,06,26,14,44,28.00
2015,06,26,14,45,28.10
2015,06,26,14,46,28.10
2015,06,26,14,47,28.20
2015,06,26,14,48,28.10
2015,06,26,14,49,28.00
2015,06,26,14,50,27.90
2015,06,26,14,51,27.80
2015,06,26,14,52,27.60
2015,06,26,14,53,27.50
2015,06,26,14,54,27.40
2015,06,26,14,55,27.40
2015,06,26,14,56,27.30
2015,06,26,14,57,27.30
2015,06,26,14,58,27.20
2015,06,26,14,59,27.20
2015,06,26,15,00,27.10
2015,06,26,15,01,27.00
2015,06,26,15,02,26.90
2015,06,26,15,03,26.80
2015,06,26,15,04,26.70
2015,06,26,15,05,26.70
2015,06,26,15,06,26.80
2015,06,26,15,07,26.90
2015,06,26,15,08,26.90
2015,06,26,15,09,27.00
2015,06,26,15,10,27.20
2015,06,26,15,11,27.40
2015,06,26,15,12,27.50
2015,06,26,15,13,27.60
2015,06,26,15,14,27.60
2015,06,26,15,15,27.60
2015,06,26,15,16,27.70
2015,06,26,15,17,27.70
2015,06,26,15,18,27.70
2015,06,26,15,19,27.70
2015,06,26,15,20,27.80
2015,06,26,15,21,27.90
2015,06,26,15,22,28.00
2015,06,26,15,23,28.10
2015,06,26,15,24,28.20
2015,06,26,15,25,28.20
2015,06,26,15,26,28.20
2015,06,26,15,27,28.20
2015,06,26,15,28,28.20
2015,06,26,15,29,28.10
2015,06,26,15,30,28.20
2015,06,26,15,31,28.20
2015,06,26,15,32,28.20
2015,06,26,15,33,28.20
2015,06,26,15,34,28.10
2015,06,26,15,35,28.10
2015,06,26,15,36,28.10
2015,06,26,15,37,28.10
2015,06,26,15,38,28.00
2015,06,26,15,39,28.00
2015,06,26,15,40,28.10
2015,06,26,15,41,28.10
2015,06,26,15,42,28.10
2015,06,26,15,43,28.20
2015,06,26,15,44,28.30
2015,06,26,15,45,28.30
2015,06,26,15,46,28.30
2015,06,26,15,47,28.30
2015,06,26,15,48,28.20
2015,06,26,15,49,28.00
2015,06,26,15,50,27.90
2015,06,26,15,51,27.80
2015,06,26,15,52,27.80
2015,06,26,15,53,27.80
2015,06,26,15,54,27.80
2015,06,26,15,55,27.80
2015,06,26,15,56,27.80
2015,06,26,15,57,27.80
2015,06,26,15,58,27.80
2015,06,26,15,59,27.80
2015,06,26,16,00,27.90
2015,06,26,16,01,27.90
2015,06,26,16,02,28.00
2015,06,26,16,03,28.00
2015,06,26,16,04,28.10
2015,06,26,16,05,28.10
2015,06,26,16,06,28.20
2015,06,26,16,07,28.20
2015,06,26,16,08,28.20
2015,06,26,16,09,28.30
2015,06,26,16,10,28.30
2015,06,26,16,11,28.30
2015,06,26,16,12,28.40
2015,06,26,16,13,28.30
2015,06,26,16,14,28.30
2015,06,26,16,15,28.30
2015,06,26,16,16,28.20
2015,06,26,16,17,28.10
2015,06,26,16,18,28.10
2015,06,26,16,19,28.10
2015,06,26,16,20,28.10
2015,06,26,16,21,28.10
2015,06,26,16,22,28.20
2015,06,26,16,23,28.20
2015,06,26,16,24,28.20
2015,06,26,16,25,28.20
2015,06,26,16,26,28.20
2015,06,26,16,27,28.30
2015,06,26,16,28,28.40
2015,06,26,16,29,28.50
2015,06,26,16,30,28.60
2015,06,26,16,31,28.70
2015,06,26,16,32,28.80
2015,06,26,16,33,28.90
2015,06,26,16,34,29.00
2015,06,26,16,35,29.10
2015,06,26,16,36,29.20
2015,06,26,16,37,29.30
2015,06,26,16,38,29.40
2015,06,26,16,39,29.50
2015,06,26,16,40,29.60
2015,06,26,16,41,29.70
2015,06,26,16,42,29.80
2015,06,26,16,43,30.00
2015,06,26,16,44,30.10
2015,06,26,16,45,30.20
2015,06,26,16,46,30.30
2015,06,26,16,47,30.20
2015,06,26,16,48,30.00
2015,06,26,16,49,29.80
2015,06,26,16,50,29.60
2015,06,26,16,51,29.50
2015,06,26,16,52,29.40
2015,06,26,16,53,29.30
2015,06,26,16,54,29.20
2015,06,26,16,55,29.10
2015,06,26,16,56,29.10
2015,06,26,16,57,29.10
2015,06,26,16,58,29.10
2015,06,26,16,59,29.10
2015,06,26,17,00,29.10
2015,06,26,17,01,29.10
2015,06,26,17,02,29.20
2015,06,26,17,03,29.20
2015,06,26,17,04,29.30
2015,06,26,17,05,29.40
2015,06,26,17,06,29.50
2015,06,26,17,07,29.50
2015,06,26,17,08,29.50
2015,06,26,17,09,29.40
2015,06,26,17,10,29.40
2015,06,26,17,11,29.40
2015,06,26,17,12,29.30
2015,06,26,17,13,29.20
2015,06,26,17,14,29.10
2015,06,26,17,15,29.00
2015,06,26,17,16,28.90
2015,06,26,17,17,28.80
2015,06,26,17,18,28.80
2015,06,26,17,19,28.80